Location: *
(50.0228°S, 177.2688°W)
Time: 11:08:55
(UTC+00:00)

Lacrosse 4 Rocket - Pass Details

Date: 07 April 2020
Orbit: 538 x 621 km, 68.0° (Epoch: 25 May)

Event Time Altitude Azimuth Distance (km) Brightness Sun altitude
Rises 06:50:33 0° 322° (NW) 2,764 5.3 -14.9°
Reaches altitude 10° 06:52:47 10° 320° (NW) 1,862 4.5 -15.3°
Maximum altitude 06:56:57 73° 235° (SW) 592 1.6 -15.9°
Drops below altitude 10° 07:01:05 10° 149° (SSE) 1,849 3.8 -16.6°
Enters shadow 07:01:49 - 148° (SSE) 2,147 4.1 -16.7°
